Location: Caltech
(34.1382°N, 118.1253°W)
Time: 07:54:50
(UTC-07:00)

Iridium 75 - Visible Passes

Search period start: 23 May 2015 00:00
Search period end: 02 June 2015 00:00
Orbit: 776 x 779 km, 86.4° (Epoch: 22 May)

Date Brightness Start Highest point End Pass type
(mag) Time Alt. Az. Time Alt. Az. Time Alt. Az.
23 May 6.4 21:03:34 10° S 21:08:44 66° W 21:13:56 10° N visible
24 May 6.1 20:30:06 10° S 20:35:13 64° E 20:40:24 10° N visible
24 May 8.9 22:14:39 10° W 22:16:33 11° WNW 22:18:06 10° WNW visible
25 May 8.3 21:38:30 10° SW 21:42:38 23° W 21:46:38 10° NNW visible
26 May 7.2 21:03:56 10° SSW 21:08:53 43° W 21:13:50 10° NNW visible
27 May 6.1 20:30:06 10° S 20:35:18 85° W 20:40:33 10° N visible
28 May 8.8 21:39:49 10° WSW 21:42:57 15° WNW 21:45:49 10° NW visible
29 May 8.0 21:04:34 10° SW 21:09:06 29° W 21:13:35 10° NNW visible
30 May 6.8 20:30:19 10° SSW 20:35:25 57° W 20:40:34 10° N visible
01 Jun 8.7 21:05:33 10° SW 21:09:23 20° WNW 21:13:03 10° NNW visible
